Regional Weather Roundup
Issued by NWS

Home | Current Version | Previous Version | Graphics & Text | Print | Product List | Glossary On
Versions: 1 2 3 4 5 6 7 8 9 10 11 12 13 14 15 16 17 18 19 20 21 22 23 24 25 26 27 28 29 30 31 32 33 34 35 36 37 38 39 40 41 42 43 44 45 46 47 48 49 50
000
ASUS43 KLSX 231207
RWRMO

WEATHER SUMMARY FOR MISSOURI
NATIONAL WEATHER SERVICE SPRINGFIELD MO
600 AM CST TUE JAN 23 2018

NOTE: "FAIR" INDICATES FEW OR NO CLOUDS BELOW 12,000 FEET WITH NO
       SIGNIFICANT WEATHER AND/OR OBSTRUCTIONS TO VISIBILITY.
       CURRENT SKY AND/OR WEATHER CONDITIONS ARE NOT AVAILABLE FOR
       CHILLICOTHE AND FARMINGTON.

MOZ001>031-035>038-043-044-053-054-231300-
...NORTHERN AND WESTERN MISSOURI...

CITY           SKY/WX    TMP DP  RH WIND       PRES   REMARKS
KANSAS CTY INT CLOUDY    29  25  85 NW14G21   30.03R WCI  18
6HR MIN TEMP:  29; 6HR MAX TEMP:  31;

KANSAS C DTWN  CLOUDY    31  25  78 NW14G23   30.04R WCI  21
6HR MIN TEMP:  31; 6HR MAX TEMP:  33;

LEE`S SUMMIT   CLOUDY    30  26  85 NW17      30.03R WCI  18
6HR MIN TEMP:  30; 6HR MAX TEMP:  32;

ST JOSEPH      CLOUDY    29  27  92 NW21      30.06R WCI  16
6HR MIN TEMP:  29; 6HR MAX TEMP:  32;

CHILLICOTHE      N/A     32  25  75 NW12G20   29.97R WCI  23
6HR MIN TEMP:  32; 6HR MAX TEMP:  33;

KIRKSVILLE     CLOUDY    30  26  85 NW15G24   29.89R WCI  19
6HR MIN TEMP:  30; 6HR MAX TEMP:  35;


$$
MOZ066>068-077>081-088>096-101>105-231300-
...SOUTHWEST MISSOURI...

CITY           SKY/WX    TMP DP  RH WIND       PRES   REMARKS
SPRINGFIELD    CLOUDY    31  25  78 NW9G22    30.02R WCI  23
6HR MIN TEMP:  31; 6HR MAX TEMP:  33;

JOPLIN         MOCLDY    30  27  88 W7        30.09R WCI  23
6HR MIN TEMP:  29; 6HR MAX TEMP:  34;

BRANSON        CLOUDY    32  25  74 NW16G26   30.03R WCI  21

$$
MOZ032>034-039>042-045>050-055>058-069>072-231300-
...CENTRAL MISSOURI...

CITY           SKY/WX    TMP DP  RH WIND       PRES   REMARKS
COLUMBIA       CLOUDY    33  27  78 NW16G25   29.91R WCI  23
6HR MIN TEMP:  33; 6HR MAX TEMP:  34; 6HR PCP: TRACE;

JEFFERSON CITY CLOUDY    34  27  75 NW22G29   29.93R WCI  22
6HR MIN TEMP:  34; 6HR MAX TEMP:  36; 6HR PCP: TRACE;

ROLLA          CLOUDY    32  27  81 W15G29    29.91R WCI  22
6HR MIN TEMP:  32; 6HR MAX TEMP:  33;

SEDALIA        CLOUDY    33  29  85 NW14G22   29.98R WCI  23
6HR MIN TEMP:  33; 6HR MAX TEMP:  34; 6HR PCP: TRACE;

WARRENSBURG    CLOUDY    32  27  80 W10G18    30.00R WCI  24
OSAGE BEACH    CLOUDY    33  26  75 W12G20    29.97R WCI  24

$$
MOZ051-052-059>065-231300-
...EAST CENTRAL MISSOURI...

CITY           SKY/WX    TMP DP  RH WIND       PRES   REMARKS
ST LOUIS INTL  CLOUDY    35  32  88 W16G25    29.85R WCI  25
6HR MIN TEMP:  35; 6HR MAX TEMP:  36; 6HR PCP:  0.01;

SPIRIT OF STL  CLOUDY    35  31  85 W13       29.86R WCI  26
6HR MIN TEMP:  35; 6HR MAX TEMP:  36; 6HR PCP: TRACE;

ST CHARLES     CLOUDY    35  31  85 W18G28    29.84R WCI  24
6HR MIN TEMP:  34; 6HR MAX TEMP:  37; 6HR PCP:  0.01;


$$
MOZ072>076-082>087-097>100-106>115-231300-
...SOUTH CENTRAL AND SOUTHEAST MISSOURI...

CITY           SKY/WX    TMP DP  RH WIND       PRES   REMARKS
CAPE GIRARDEAU CLOUDY    37  30  75 W15       29.90R WCI  28
6HR MIN TEMP:  37; 6HR MAX TEMP:  42;

FARMINGTON     CLOUDY    35  28  75 NW10G17   29.89R WCI  27
6HR MIN TEMP:  34; 6HR MAX TEMP:  36; 6HR PCP: TRACE;

POPLAR BLUFF   CLOUDY    38  27  64 W12G24    29.94R
6HR MIN TEMP:  38; 6HR MAX TEMP:  43;

WEST PLAINS    CLOUDY    32  25  75 W14G24    29.96R WCI  22
6HR MIN TEMP:  32; 6HR MAX TEMP:  36;


$$


USA.gov is the U.S. government's official web portal to all federal, state and local government web resources and services.